Location: Laterina
(43.5167°N, 11.7167°E)
Time: 07:44:15
(UTC+00:00)

Cosmos 2026 Rocket - Pass Details

Date: 17 January 2021
Orbit: 940 x 1000 km, 82.9° (Epoch: 08 March)

Event Time Altitude Azimuth Distance (km) Brightness Sun altitude
Rises 18:19:35 0° 172° (S) 3,591 7.0 -24.0°
Reaches altitude 10° 18:22:05 10° 168° (SSE) 2,655 6.2 -24.5°
Enters shadow 18:26:27 44° 138° (SE) 1,290 4.3 -25.2°
